• Join FlightAware (Why Join?)
  • Login
  • US Flag 
10:29AM EST


 

Airport Tracker/Info


-or-


 

Live Flight TrackerFlight Track Log ✈ N770NC ✈ 11-Jun-2013 ✈ KBNA - KDTW

Flight Track Log - Related Links

Times and Time Zones

All times are in EDT time to prevent confusion due to time zone crossing. See the N770NC flight status page for this flight to view local times or setup timezone preferences in your user account.

Time Position Orientation Groundspeed Altitude Reporting Facility
EDT Latitude Longitude Course Direction KTS MPH feet Rate Location/Type
12:53PM 36.1500 -86.7167 327° Northwest 199 229 2,100  Level Nashville TRACON
12:54PM 36.1667 -86.7667 292° West 229 264 3,200 1,867 Climbing Nashville TRACON
12:55PM 36.2167 -86.8000 332° Northwest 260 299 4,900 1,674 Climbing Nashville TRACON
12:56PM 36.5378 -86.7380 350° North  Level FlightAware Approximate
12:56PM 36.2953 -86.8008 360° North 268 308 6,800  Level Memphis Center
12:57PM 36.6427 -86.7613 350° North  Level FlightAware Approximate
12:57PM 36.3639 -86.8006 360° North 273 314 8,800  Level Memphis Center
12:58PM 36.7411 -86.7996 327° Northwest  Level FlightAware Approximate
12:58PM 36.4408 -86.7944 North 273 314 10,500  Level Memphis Center
12:59PM 36.5286 -86.7958 359° North 295 339 11,200 1,450 Climbing Memphis Center
01:00PM 36.6222 -86.7944 North 323 372 13,400 2,050 Climbing Memphis Center
01:01PM 36.7244 -86.7925 North 333 383 15,300 1,950 Climbing Memphis Center
01:02PM 36.8225 -86.7983 357° North 339 390 17,300 1,600 Climbing Memphis Center
01:03PM 36.9244 -86.7939 North 349 402 18,500 1,500 Climbing Memphis Center
01:04PM 37.0303 -86.7789 North 364 419 20,300 1,623 Climbing Memphis Center
01:05PM 37.1325 -86.7708 North 385 443 21,800 1,403 Climbing Indianapolis Center
01:06PM 37.2425 -86.7617 North 390 449 23,200 1,500 Climbing Indianapolis Center
01:07PM 37.3550 -86.7556 North 398 458 24,900 1,258 Climbing Indianapolis Center
01:08PM 37.4667 -86.7367 North 400 460 25,800 968 Climbing Indianapolis Center
01:09PM 37.5981 -86.7086 10° North 414 476 26,900 919 Climbing Indianapolis Center
01:10PM 37.7139 -86.6928 North 419 482 27,700 871 Climbing Indianapolis Center
01:11PM 37.8306 -86.6733 North 421 484 28,700 629 Climbing Indianapolis Center
01:12PM 37.9464 -86.6556 North 420 483 29,000 145 Climbing Indianapolis Center
01:13PM 38.0622 -86.6306 10° North 423 487 29,000  Level Indianapolis Center
01:14PM 38.1783 -86.6056 10° North 425 489 29,000  Level Indianapolis Center
01:15PM 38.3178 -86.5803 North 425 489 29,000  Level Indianapolis Center
01:16PM 38.4342 -86.5539 10° North 427 491 29,000  Level Indianapolis Center
01:17PM 38.5514 -86.5339 North 426 490 29,000  Level Indianapolis Center
01:18PM 38.6692 -86.5069 10° North 430 495 29,000  Level Indianapolis Center
01:20PM 38.7867 -86.4850 North 427 491 29,000  Level Indianapolis Center
01:21PM 38.9050 -86.4647 North 427 491 29,000  Level Indianapolis Center
01:22PM 39.0464 -86.4431 North 421 484 29,000  Level Indianapolis Center
01:23PM 39.1622 -86.4364 North 417 480 29,000  Level Indianapolis Center
01:24PM 39.2775 -86.3958 15° North 424 488 29,000  Level Indianapolis Center
01:25PM 39.3908 -86.3597 14° North 420 483 29,000  Level Indianapolis Center
01:26PM 39.4978 -86.2908 26° Northeast 427 491 29,000  Level Indianapolis Center
01:27PM 39.6064 -86.2294 24° Northeast 425 489 29,000  Level Indianapolis Center
01:28PM 39.7175 -86.1711 22° Northeast 427 491 29,000  Level Indianapolis Center
01:29PM 39.8225 -86.0967 29° Northeast 429 494 29,000  Level Indianapolis Center
01:30PM 39.9494 -86.0103 28° Northeast 428 493 29,000  Level Indianapolis Center
01:31PM 40.0572 -85.9350 28° Northeast 430 495 29,000  Level Indianapolis Center
01:32PM 40.1586 -85.8447 34° Northeast 436 502 29,000  Level Indianapolis Center
01:33PM 40.2497 -85.7747 30° Northeast 438 504 29,000  Level Chicago Center
01:34PM 40.3519 -85.6894 32° Northeast 437 503 29,000  Level Chicago Center
01:35PM 40.4756 -85.5822 33° Northeast 442 509 29,000 -242 Level Chicago Center
01:36PM 40.5789 -85.4969 32° Northeast 442 509 28,500 -1,790 Descending Chicago Center
01:37PM 40.6825 -85.4122 32° Northeast 441 507 25,300 -2,419 Descending Chicago Center
01:38PM 40.7897 -85.3306 30° Northeast 444 511 23,500 -1,403 Descending Chicago Center
01:39PM 40.8917 -85.2344 35° Northeast 450 518 22,400 -1,113 Descending Chicago Center
01:40PM 41.0094 -85.1467 29° Northeast 430 495 21,200 -629 Descending Chicago Center
01:41PM 41.1056 -85.0675 32° Northeast 425 489 21,100 -97 Descending Chicago Center
01:42PM 41.1894 -84.9581 44° Northeast 432 497 21,000 -48 Descending Chicago Center
01:43PM 41.2761 -84.8458 44° Northeast 438 504 21,000  Level Chicago Center
01:44PM 41.3692 -84.7450 39° Northeast 437 503 21,000 -919 Level Chicago Center
01:45PM 41.4783 -84.6308 38° Northeast 426 490 19,100 -1,790 Descending Chicago Center
01:46PM 41.5697 -84.5378 37° Northeast 420 483 17,300 -1,212 Descending Chicago Center
01:47PM 41.6289 -84.4811 36° Northeast 412 474 17,000 -882 Descending Cleveland Center
01:48PM 41.7033 -84.3742 47° Northeast 399 459 15,800 -2,084 Descending Cleveland Center
01:49PM 41.7333 -84.2897 65° Northeast 402 463 13,700 -3,800 Descending Cleveland Center
01:49PM 41.7497 -84.2322 69° East 383 441 12,000 -1,522 Descending Cleveland Center
01:50PM 41.7800 -84.1308 68° East 400 460 12,000  Level Cleveland Center
01:50PM 41.7914 -84.0953 67° East 376 433 12,000  Level Cleveland Center
01:51PM 41.8297 -84.0028 61° Northeast 382 440 12,000  Level Cleveland Center
01:51PM 41.8453 -83.9728 55° Northeast 383 441 12,000 109 Level Cleveland Center
01:52PM 41.8928 -83.9139 43° Northeast 355 409 12,100  Climbing Cleveland Center
01:52PM 41.9106 -83.8758 58° Northeast 367 422 12,000  Descending Cleveland Center
01:53PM 41.9578 -83.8308 35° Northeast 346 398 12,100  Climbing Cleveland Center
01:53PM 41.9858 -83.7931 45° Northeast 349 402 12,000  Descending Cleveland Center
01:54PM 42.0394 -83.7397 36° Northeast 355 409 12,100 100 Climbing Cleveland Center
01:54PM 42.0653 -83.7103 40° Northeast 349 402 12,100  Level Cleveland Center
01:55PM 42.1164 -83.6681 31° Northeast 365 420 12,100 -100 Level Cleveland Center
01:55PM 42.1467 -83.6303 43° Northeast 354 407 12,000 -90 Descending Cleveland Center
01:56PM 42.2044 -83.5714 37° Northeast 337 388 12,000 100 Level Cleveland Center
01:56PM 42.2197 -83.5497 46° Northeast 349 402 12,100 -197 Climbing Cleveland Center
01:57PM 42.2706 -83.5156 26° Northeast 251 289 11,800 -500 Descending Cleveland Center
01:57PM 42.2833 -83.5022 38° Northeast 295 339 11,600 -1,770 Descending Cleveland Center
01:58PM 42.3342 -83.4792 19° North 241 277 10,000 -1,900 Descending Cleveland Center
01:58PM 42.3447 -83.4656 44° Northeast 242 278 9,700 -1,258 Descending Cleveland Center
01:59PM 42.3914 -83.4425 20° North 219 252 8,700 -1,412 Descending Cleveland Center
02:00PM 42.4419 -83.4139 23° Northeast 210 242 7,300 -1,448 Descending Cleveland Center
02:01PM 42.4867 -83.3764 32° Northeast 208 239 5,900 -1,377 Descending Cleveland Center
02:02PM 42.4722 -83.2883 103° East 231 266 4,500 -974 Descending Cleveland Center
02:03PM 42.4269 -83.2556 152° Southeast 207 238 4,000 -536 Descending Cleveland Center